Theta_e
312 311 310 312 315 317 318 319 319 318 319 319 319 319 320 321 320 322 324 324 325 325 324 324 323 322 321 322 322 324 325 325 325 326 327 327 327 326 325 326 325 324 323 323 323 322 323 322 320 317 314 317 316 317 318 314 310 310 310 310 312 314 317 316 314 312 312 313 313 310 310 309 308 306 304 303 305 306 303 305 303 303 305 305 306
301 303 306 308 312 313 316 318 316 317 317 318 319 320 320 320 321 322 323 324 325 326 325 325 325 325 325 324 321 323 324 324 325 326 327 327 326 326 326 325 324 323 321 322 320 322 323 320 320 320 316 314 314 314 313 311 312 312 313 316 315 316 314 313 316 314 310 309 310 310 305 305 304 303 301 302 307 307 303 301 301 302 304 304 305
298 302 303 305 307 311 314 317 318 320 320 318 320 320 319 320 321 321 323 324 325 325 325 325 324 321 324 319 324 317 319 327 327 327 327 328 328 327 325 325 325 325 325 323 324 322 322 323 321 317 315 314 315 317 315 316 316 316 316 316 316 314 312 311 311 314 312 311 310 304 301 304 303 296 295 303 306 304 299 301 303 302 303 303 303
298 299 301 304 305 309 311 315 317 318 318 318 318 319 320 320 321 321 322 323 324 324 322 325 324 321 320 318 321 322 320 317 323 322 324 325 325 325 326 324 324 325 325 324 321 323 322 319 318 317 316 317 320 319 319 318 317 316 316 314 314 313 313 312 308 310 312 311 307 306 306 305 304 298 306 310 302 302 301 305 300 301 302 301 301
297 298 298 300 302 306 310 313 315 316 318 318 318 319 321 320 321 321 322 322 323 321 322 322 320 318 317 316 317 318 318 319 320 320 323 323 322 322 324 323 324 325 325 323 319 321 322 323 323 323 322 321 320 319 318 318 317 316 316 315 314 313 312 312 311 310 308 311 311 306 304 302 302 306 306 306 303 307 306 305 302 302 303 302 301
295 297 298 299 302 305 306 309 312 315 317 318 319 320 320 320 320 320 321 321 323 322 322 321 322 323 321 322 320 319 321 320 322 321 318 320 324 322 322 322 324 323 322 324 325 322 323 323 322 321 320 319 319 319 318 317 316 315 315 315 314 314 313 310 310 308 307 308 310 311 309 306 304 305 304 299 306 308 306 304 305 304 300 301 301
292 293 294 296 298 301 304 308 311 313 316 317 317 318 319 319 319 320 321 321 321 320 321 320 321 322 323 324 324 323 322 319 320 319 323 318 317 320 321 321 322 322 321 323 323 322 321 321 320 320 320 320 316 318 317 315 313 312 310 311 311 310 308 306 308 309 306 307 307 307 306 307 307 304 301 303 298 303 304 303 302 302 301 301 300
293 293 294 296 298 300 303 307 309 313 315 313 315 316 317 318 318 319 320 319 320 320 320 322 323 321 321 321 320 321 322 320 316 317 315 314 317 317 318 317 318 319 320 319 319 319 318 317 317 317 316 315 314 315 313 310 310 310 310 310 309 307 305 306 307 310 307 307 306 305 302 300 300 302 302 301 298 293 293 296 299 298 298 297 298
293 293 293 294 296 297 301 304 307 309 309 312 313 314 315 317 316 317 318 318 319 319 320 321 321 322 322 321 319 317 318 315 311 309 312 314 317 316 317 316 314 313 314 313 312 313 311 315 315 314 314 314 311 312 311 309 307 309 309 309 308 309 309 309 309 308 308 307 306 304 304 302 300 301 303 302 297 292 291 291 290 292 293 294 294
291 292 293 293 294 296 298 299 301 306 306 306 306 308 311 313 314 315 317 317 318 318 319 320 321 319 321 320 320 316 313 310 314 313 314 315 316 315 314 312 311 310 310 310 310 310 310 310 309 309 307 307 306 306 305 305 305 304 302 301 301 304 306 307 307 306 306 306 305 303 302 302 300 297 295 299 298 297 292 290 290 288 287 288 291
291 292 292 292 291 292 292 299 300 298 296 297 301 305 308 311 313 314 316 316 315 317 318 319 320 320 321 320 319 316 314 314 314 314 314 315 314 312 311 310 309 308 307 306 307 307 307 306 306 303 301 300 302 304 303 303 301 300 299 300 301 301 301 301 300 300 301 301 301 302 301 299 298 297 296 297 295 291 290 289 289 289 288 288 288
292 293 294 293 293 292 292 295 297 297 295 296 298 300 304 309 311 313 311 312 313 316 317 318 319 319 320 319 319 317 316 316 317 315 314 315 314 312 308 307 306 306 306 305 304 304 304 303 300 299 298 298 300 300 301 301 301 301 300 301 300 300 300 299 299 298 297 298 298 299 299 299 298 297 298 297 294 293 292 289 289 289 289 288 291
292 293 294 294 296 296 295 296 294 296 299 297 297 299 301 304 308 312 312 311 313 314 316 317 318 318 319 318 318 317 317 318 318 316 315 315 313 310 308 307 305 305 304 303 302 301 301 300 297 297 297 296 296 298 297 298 298 297 297 297 298 297 297 297 296 295 296 296 295 295 294 292 293 295 296 296 296 296 293 290 289 291 289 288 287
293 294 295 295 296 297 297 297 297 296 296 296 296 297 298 302 304 310 313 311 312 314 315 316 317 318 318 318 319 317 317 318 318 317 316 315 313 310 309 307 306 306 303 302 299 298 297 295 295 295 294 294 295 295 296 296 296 296 295 295 294 295 295 294 293 292 292 292 293 293 292 292 292 293 295 295 294 293 291 290 289 289 288 286 287
292 293 295 295 295 295 296 296 296 293 296 296 296 299 300 301 303 307 310 307 310 313 315 315 315 316 317 318 319 318 318 318 318 317 315 313 311 311 309 306 305 302 302 298 297 296 294 293 293 293 293 293 293 294 294 294 293 293 292 291 292 292 292 291 290 290 290 290 290 290 290 290 289 290 292 292 293 293 292 291 289 286 285 283 283
292 293 294 293 292 291 293 293 293 295 298 299 298 299 301 304 305 308 310 308 309 311 314 315 314 315 316 317 318 316 316 316 313 311 312 313 310 309 305 304 302 299 297 296 294 293 292 292 291 291 291 291 291 292 291 291 290 290 289 289 289 290 289 288 288 287 287 287 287 287 288 288 288 288 289 290 290 291 291 291 290 289 286 282 284
292 293 294 293 290 290 292 293 293 295 298 299 300 300 303 305 306 308 309 308 308 310 313 314 313 313 315 316 315 314 314 313 312 310 308 306 306 305 303 300 298 298 295 293 291 290 291 291 290 289 290 289 290 289 289 289 288 288 287 287 286 286 286 286 286 286 286 286 286 285 285 285 285 284 284 285 287 289 289 290 291 289 288 285 282
292 292 292 292 292 292 291 292 296 298 300 301 301 302 304 306 307 308 307 307 308 309 311 311 311 311 312 313 312 313 313 312 310 307 304 303 301 299 298 297 296 294 293 291 290 289 289 288 288 287 287 287 287 287 287 287 287 286 285 284 283 283 284 283 283 283 283 283 283 283 282 282 283 282 282 282 283 285 286 287 288 289 290 286 286
292 292 292 291 291 292 292 293 294 297 300 302 302 303 304 306 307 308 308 308 308 309 308 309 310 310 310 311 310 310 309 307 305 304 303 301 299 298 298 295 293 292 290 289 288 287 286 285 285 285 285 285 285 285 285 285 285 285 284 283 282 283 284 283 282 283 282 282 282 282 282 282 282 282 282 282 282 282 283 284 286 288 288 287 286
292 292 291 291 290 291 291 292 293 296 300 302 302 303 304 306 306 306 307 307 306 306 306 308 307 307 306 306 306 307 305 303 302 302 301 300 297 296 294 293 291 289 289 288 287 286 285 285 284 285 284 284 284 283 283 284 284 283 283 284 283 284 284 283 282 281 282 282 282 282 281 281 281 281 281 281 281 281 281 281 281 283 285 286 286
291 292 292 291 291 289 288 289 290 292 297 301 302 303 304 303 305 305 305 304 305 305 305 305 305 304 304 304 302 301 300 300 300 300 298 296 294 293 293 290 287 287 286 286 286 286 285 285 284 284 284 284 284 283 282 283 283 283 283 283 283 283 283 282 282 282 282 281 281 281 281 281 281 281 281 280 280 280 280 280 281 281 281 281 283
291 290 290 290 289 288 288 287 287 289 293 298 301 302 303 302 303 303 304 304 304 303 304 302 303 303 303 301 299 299 298 298 297 296 294 293 291 290 287 287 287 285 286 286 286 284 284 284 284 284 283 283 283 283 282 283 283 283 283 282 282 283 283 282 282 282 281 281 281 281 280 281 281 280 280 280 280 280 280 280 280 280 280 280 281
291 290 289 288 288 288 288 289 289 290 294 297 298 301 302 301 300 301 302 301 302 302 301 301 301 300 298 297 297 296 295 295 294 292 291 290 288 287 287 287 286 285 284 285 285 284 284 284 283 283 283 283 283 282 282 283 283 283 283 282 282 282 283 282 281 281 281 281 281 280 279 281 280 280 279 280 280 280 279 279 280 280 279 280 280
288 287 287 287 287 286 287 288 289 289 291 295 297 299 300 300 300 298 299 298 297 298 298 299 298 296 295 294 294 293 293 292 292 290 289 287 286 286 286 286 285 285 284 283 283 284 283 283 283 283 283 283 282 282 282 282 282 282 282 282 282 282 282 281 281 281 281 281 281 280 280 279 280 279 279 279 279 279 279 279 279 280 279 280 280
287 287 287 286 286 287 289 289 289 288 289 292 296 297 298 297 296 297 295 294 294 294 295 295 294 293 292 292 291 291 292 291 290 289 287 286 286 285 285 285 285 284 283 283 282 283 283 283 283 283 282 282 282 282 282 282 282 281 282 282 281 281 281 281 281 281 282 281 280 280 280 280 280 279 279 279 279 279 279 279 279 279 279 280 280
287 286 286 287 288 288 288 288 289 288 289 291 293 294 293 294 294 293 294 292 291 292 293 293 293 292 291 290 290 291 291 290 288 287 286 286 285 285 285 284 285 284 283 283 282 282 283 282 282 282 282 282 281 282 282 282 281 281 281 281 281 281 281 281 281 281 281 280 280 280 280 280 279 278 279 279 279 279 279 279 279 279 279 280 279
288 288 288 286 286 288 289 289 289 288 288 289 290 292 291 291 291 291 292 292 291 292 291 292 292 292 291 290 290 290 290 289 287 286 285 285 285 284 284 284 283 283 283 282 282 282 281 282 282 282 282 282 282 281 281 281 281 282 281 281 281 281 281 280 281 280 280 280 280 280 279 279 278 278 279 278 279 279 279 279 279 279 280 280 280
286 287 288 289 289 289 288 289 287 288 287 286 287 289 291 292 292 290 290 290 290 291 291 291 291 291 291 290 289 289 288 286 286 286 285 285 284 284 283 282 282 282 282 282 282 281 281 281 281 281 281 281 281 281 281 281 281 281 281 281 281 280 280 280 280 280 279 278 279 279 279 278 278 278 278 279 279 279 279 279 279 279 280 281 281
289 290 289 289 290 290 290 289 289 287 287 287 287 287 287 289 290 290 289 290 290 291 290 291 291 291 290 289 288 286 286 285 285 285 284 284 283 283 282 282 282 282 282 281 281 281 281 280 280 281 280 281 281 282 282 281 282 281 281 281 281 280 280 280 279 279 278 278 278 278 278 277 279 282 283 283 283 283 280 279 280 281 282 281 281
291 291 291 292 292 292 291 291 290 289 288 287 288 288 288 288 288 288 289 289 289 290 290 290 290 290 288 287 286 285 285 285 285 284 284 283 283 282 282 281 281 281 281 281 280 280 280 280 280 279 279 280 281 282 285 288 286 282 281 281 281 280 280 279 279 278 278 278 278 277 278 281 281 281 282 282 283 283 283 282 281 281 281 280 280
290 291 292 292 292 292 291 291 291 290 289 289 289 289 288 288 288 287 287 287 288 288 289 289 289 288 286 285 285 285 284 284 284 284 283 283 282 282 281 281 281 280 280 280 280 279 279 279 279 279 279 280 282 283 288 288 288 287 282 280 280 279 279 279 278 277 277 277 277 277 277 278 279 280 279 281 281 282 282 282 283 283 283 282 280
290 291 291 291 291 292 291 292 291 291 290 289 289 289 288 288 287 287 286 285 286 287 287 287 286 285 285 285 285 284 284 284 283 283 283 282 282 281 281 280 280 279 279 279 279 279 279 278 278 278 278 279 281 287 288 288 288 287 283 280 279 279 278 278 277 277 277 276 276 276 277 278 277 278 278 277 279 280 282 282 283 283 284 284 284
291 291 291 291 292 292 293 292 291 291 290 290 290 288 288 288 287 287 285 286 287 287 287 286 285 285 285 285 284 284 284 283 283 282 282 281 281 281 280 280 280 279 278 278 278 278 278 278 278 277 277 278 280 286 287 287 287 286 284 281 278 278 278 278 277 277 276 276 276 276 276 277 277 279 277 277 277 278 281 283 283 283 283 283 283
291 292 292 293 292 292 292 291 291 291 290 289 288 289 288 287 287 286 286 286 286 286 286 285 285 285 285 284 284 284 283 283 282 281 281 281 281 280 280 279 278 278 278 277 277 277 277 277 277 277 277 278 279 285 286 287 286 285 283 281 277 278 278 278 278 277 277 276 275 276 275 276 276 276 276 277 278 280 281 281 281 281 281 281 282
291 291 291 292 292 292 289 289 290 290 288 288 287 288 287 287 287 286 286 286 286 285 285 285 284 284 284 284 283 283 282 282 281 281 280 280 280 279 278 278 278 278 277 277 277 276 276 276 276 276 277 278 281 285 286 286 286 284 283 281 277 278 278 278 278 277 276 276 275 276 275 275 275 275 276 279 280 281 281 281 280 280 280 280 281
292 292 293 292 292 292 292 292 288 289 288 289 288 287 287 287 286 286 285 286 286 285 285 285 284 284 284 284 283 282 282 281 281 280 280 280 279 278 278 276 276 276 276 276 275 276 275 275 275 275 275 276 279 284 285 285 285 283 282 278 277 278 277 277 277 277 277 276 276 275 275 275 275 275 278 281 282 282 281 280 279 279 279 280 279
292 291 292 292 292 291 291 288 288 289 288 288 288 287 287 286 286 286 286 285 285 285 285 284 285 284 284 283 283 282 281 281 280 280 279 279 278 277 276 276 276 276 276 275 275 274 274 274 273 274 274 275 276 282 284 284 284 283 280 277 277 276 276 276 276 277 276 275 275 275 275 275 275 275 279 282 283 282 280 279 278 278 278 277 276
287 286 287 288 287 287 287 290 288 288 288 288 287 287 287 286 285 285 285 285 285 285 285 285 285 284 284 283 283 282 281 280 280 280 279 279 277 276 276 276 277 276 275 275 274 274 273 273 274 274 275 275 277 281 283 284 283 282 279 277 276 275 275 276 276 277 277 276 276 277 277 275 276 277 281 282 283 281 279 278 278 277 276 275 276
286 287 287 286 288 289 288 288 288 288 287 287 287 287 287 286 285 285 285 285 285 285 285 285 285 284 283 283 282 281 281 280 280 280 279 278 277 277 275 275 275 275 274 273 273 274 273 273 274 276 277 276 276 278 282 283 283 282 279 277 276 274 275 276 276 275 276 276 276 276 277 277 277 279 282 282 282 281 279 278 277 276 275 275 277
284 285 285 286 286 287 286 288 288 289 287 287 287 287 287 287 286 285 285 285 286 287 287 286 285 283 283 282 281 281 280 280 280 279 278 277 275 274 274 274 273 274 273 273 274 274 274 274 275 275 275 275 275 276 279 282 282 281 281 277 276 275 275 275 276 275 274 274 274 273 275 278 279 281 281 281 281 281 279 278 277 275 275 275 279
284 284 286 285 286 289 289 289 288 287 287 287 287 287 287 287 286 285 285 287 287 286 285 284 283 282 281 281 280 280 279 279 278 277 277 275 275 275 274 273 273 273 273 273 274 274 274 274 275 275 275 275 275 274 277 280 281 281 281 279 276 276 276 276 275 274 274 273 272 272 275 277 280 281 280 280 280 280 280 278 277 276 277 279 280
282 283 284 284 285 286 286 285 284 286 287 287 287 287 287 286 285 286 286 284 285 284 283 282 281 281 280 279 278 278 277 277 275 275 275 274 273 274 274 273 273 273 273 273 273 274 274 274 274 274 274 273 275 276 275 278 279 280 280 280 277 277 278 276 275 274 274 273 274 275 275 278 280 279 279 279 280 280 280 278 278 280 280 280 277
283 284 283 284 285 285 284 283 283 285 286 286 287 287 286 286 286 286 284 284 283 282 281 281 280 279 278 277 276 276 275 275 275 275 275 274 273 273 273 273 273 273 274 273 274 274 273 273 273 273 273 273 273 273 276 275 278 279 279 279 279 278 279 277 275 274 273 273 275 275 277 278 278 278 278 279 279 279 277 277 279 279 278 278 276
281 281 282 282 283 282 282 281 282 283 285 286 287 287 286 286 285 282 282 281 281 280 280 279 278 277 276 275 274 274 274 274 274 274 274 273 273 272 272 273 273 273 273 273 273 273 273 272 272 272 273 273 273 272 274 276 276 278 278 279 279 278 278 277 276 275 274 275 275 276 277 277 277 277 278 278 278 277 276 277 277 276 276 275 274
280 281 280 280 282 281 281 280 281 281 282 283 283 286 284 284 281 280 280 280 279 279 278 277 277 275 275 273 273 273 273 273 273 274 273 273 272 272 272 272 273 273 273 273 272 272 272 272 272 272 272 272 272 272 272 274 276 276 277 277 278 278 277 277 274 274 275 276 277 278 276 276 276 276 276 276 274 274 274 274 274 274 272 271 272
278 279 278 279 280 280 280 280 279 280 280 280 281 282 284 282 279 280 279 279 278 278 277 276 275 274 273 272 272 271 271 272 272 273 273 274 273 273 273 273 273 274 273 272 272 272 272 272 271 272 271 271 271 271 271 272 274 275 275 276 276 276 276 276 276 275 276 277 276 275 275 275 274 273 271 269 268 269 271 272 272 270 268 269 270
278 277 277 279 279 280 279 279 279 278 279 279 280 280 280 278 278 279 279 278 278 277 277 275 274 273 272 272 272 272 271 271 271 271 272 273 273 274 274 273 273 273 273 272 272 271 271 271 271 270 270 270 269 270 271 272 273 274 274 275 275 274 275 275 274 274 274 271 271 271 270 272 271 272 271 270 269 269 266 266 265 266 266 268 270
275 275 275 276 277 278 277 277 278 277 277 277 277 275 276 277 277 278 277 277 277 277 276 274 273 273 272 272 273 272 272 271 271 272 272 272 273 274 274 273 273 273 273 272 272 271 271 271 271 270 269 268 268 268 270 271 273 274 274 274 274 274 274 272 271 273 271 267 265 269 268 265 264 264 264 262 261 262 264 264 264 264 265 268 269
276 274 274 276 275 275 275 276 275 274 274 274 273 273 275 277 277 277 277 277 277 275 275 273 272 272 271 272 272 272 272 271 271 271 271 272 273 274 274 274 273 273 274 274 273 273 273 273 272 270 268 268 268 269 270 274 274 276 275 273 273 273 272 272 274 274 268 264 262 261 261 262 261 262 261 260 260 260 261 262 262 263 264 266 266
273 273 272 272 272 273 273 273 273 272 272 272 271 272 273 274 275 276 277 277 275 274 273 272 272 272 271 271 271 271 270 271 271 270 270 270 273 275 273 273 271 274 275 275 276 272 273 271 270 270 270 270 270 271 275 277 277 277 276 276 276 275 275 273 273 272 267 257 259 258 259 260 260 258 259 259 260 260 260 260 261 264 265 264 264
273 273 272 272 271 271 271 271 270 270 270 270 270 270 271 271 273 274 276 276 275 274 273 272 271 271 271 271 271 270 270 269 270 270 270 270 271 273 275 275 274 275 276 276 276 275 274 273 271 268 270 274 274 276 277 277 277 276 276 275 275 275 275 273 272 265 260 258 257 258 259 258 259 258 258 258 259 259 259 260 261 262 263 263 263
Wind_Speed
11 6 5 6 8 7 7 6 7 6 7 8 8 9 9 10 8 10 8 7 7 7 7 7 6 5 3 6 6 5 6 5 5 4 4 5 5 5 3 4 5 7 6 6 7 7 5 4 4 4 2 2 3 4 3 2 0 1 2 2 3 2 3 1 2 1 4 5 3 5 5 5 6 5 2 4 5 6 3 4 3 5 5 6 6
4 4 6 7 8 7 7 7 6 9 9 8 10 12 10 9 10 10 7 8 9 9 8 8 8 8 7 7 4 5 5 5 4 3 4 5 4 4 4 3 3 2 2 2 3 3 4 4 3 4 3 3 3 3 3 1 1 2 2 3 2 2 1 2 4 1 2 3 7 7 2 3 3 2 3 3 7 6 4 3 4 4 6 6 6
6 9 7 6 8 8 8 9 9 11 10 11 11 9 9 10 10 8 9 9 9 8 8 8 5 5 6 4 7 4 3 6 6 5 5 4 5 5 3 3 3 3 4 4 5 5 4 4 5 3 2 2 2 3 2 3 2 2 2 3 2 1 1 1 2 0 2 3 3 2 3 7 5 3 2 3 4 4 2 4 5 5 5 5 6
10 11 11 9 8 8 8 9 10 9 9 8 9 11 10 10 9 9 9 9 8 9 9 7 7 5 4 4 4 4 4 2 4 4 3 2 2 2 4 4 4 3 4 5 5 4 3 3 2 1 2 3 3 3 2 1 1 1 0 1 1 1 1 0 2 1 1 3 4 1 3 2 5 2 7 10 4 4 4 6 3 4 5 5 6
12 11 9 7 7 10 12 11 9 10 11 11 11 11 9 11 11 10 9 9 8 8 9 6 6 4 4 4 3 4 3 3 3 2 4 3 1 1 3 3 5 5 4 3 2 3 4 3 4 4 3 3 3 2 1 1 2 2 3 2 1 1 1 1 1 3 3 2 1 3 3 1 1 4 7 6 5 10 8 7 5 5 6 5 6
12 13 12 10 11 9 7 7 9 10 11 11 10 11 10 9 8 8 8 8 9 9 9 8 8 9 7 7 6 4 5 4 5 5 3 3 5 2 1 2 3 3 2 3 3 2 2 2 2 2 3 2 2 2 3 3 3 4 3 3 2 1 1 2 1 2 3 3 1 1 1 3 5 3 3 4 4 7 7 6 9 8 5 7 8
8 9 6 6 8 8 9 10 11 11 12 9 9 9 10 9 8 9 9 8 8 7 9 8 8 8 10 10 9 8 7 4 3 4 5 4 2 2 3 0 2 2 1 2 4 5 4 3 4 3 5 4 3 3 3 3 4 3 3 3 2 1 2 2 3 1 1 3 2 1 2 1 1 4 3 5 8 1 2 5 6 7 7 9 9
10 12 11 10 9 11 13 14 12 13 11 8 9 8 10 10 9 10 8 8 8 8 9 10 10 9 9 8 8 8 8 7 7 5 3 3 3 3 2 3 3 3 5 3 5 5 5 4 4 4 4 3 3 3 3 3 4 3 4 3 2 2 2 3 2 2 2 1 2 3 3 3 3 0 1 3 4 7 6 3 5 4 6 5 6
10 11 12 12 12 12 11 11 11 8 7 9 10 10 9 8 8 7 8 8 8 10 10 10 10 10 10 8 8 6 7 5 3 3 4 4 4 3 4 5 5 4 4 4 2 4 4 5 5 5 4 2 3 3 3 3 3 4 3 3 2 3 2 2 3 2 3 2 2 2 2 3 3 1 3 4 2 3 7 3 8 3 3 7 5
7 11 9 8 9 8 7 4 3 8 6 5 5 5 6 6 8 9 9 8 8 9 10 11 10 9 9 8 9 7 5 4 5 5 5 5 6 5 5 5 5 4 4 3 3 3 4 4 5 4 3 3 3 3 3 4 4 5 4 4 3 4 3 5 4 3 3 3 3 2 2 4 2 3 2 5 2 2 5 11 8 10 14 4 6
8 9 8 7 4 5 4 7 6 3 4 5 5 6 6 8 8 10 10 8 8 10 10 11 10 9 10 9 10 9 8 8 6 5 5 5 7 6 5 5 3 4 4 3 4 3 4 5 6 5 3 3 4 4 4 5 4 4 4 5 6 5 4 5 5 5 3 4 4 3 3 2 1 1 4 4 4 2 7 8 9 7 8 15 2
8 7 10 8 5 4 3 6 6 5 4 5 5 5 6 7 8 9 7 8 8 8 9 10 9 10 8 9 10 10 10 9 9 9 8 8 8 8 4 4 4 3 2 5 4 2 4 5 5 4 4 4 4 3 4 4 4 4 5 5 4 5 5 5 4 5 5 4 5 4 3 3 4 3 3 3 3 3 4 8 9 9 7 6 8
7 9 7 6 8 8 8 7 5 6 8 7 7 6 6 6 8 9 9 8 9 8 10 9 9 9 9 9 9 9 10 10 10 10 9 9 7 7 8 6 5 4 4 5 3 2 4 5 4 4 4 4 4 5 4 5 6 5 5 5 5 5 4 4 5 5 4 4 3 2 2 3 4 3 3 3 3 2 4 8 7 4 8 12 5
7 7 7 8 8 7 7 7 7 6 5 5 5 5 5 6 7 9 9 8 7 8 9 10 10 10 9 10 9 9 9 9 8 10 9 8 10 9 8 8 8 7 6 5 4 4 5 4 4 5 4 4 5 5 5 5 5 6 5 6 5 4 5 6 6 5 5 5 3 4 4 4 4 4 3 4 4 4 4 6 10 7 5 9 7
5 5 7 7 7 6 7 6 6 6 6 5 5 4 4 5 6 8 7 7 8 9 9 10 9 10 9 9 9 9 9 8 8 8 10 8 6 10 8 6 6 5 6 6 5 6 5 4 4 5 4 5 5 6 6 6 6 6 6 6 5 5 6 5 5 5 5 5 6 4 4 4 4 4 4 4 3 3 4 5 7 12 11 4 5
4 5 6 5 4 4 4 4 5 5 5 4 5 5 5 5 6 7 8 8 8 9 9 10 10 9 9 10 10 9 8 8 6 6 7 10 10 8 7 6 6 7 5 7 4 5 5 6 5 5 4 5 5 5 5 5 5 7 6 6 6 4 5 7 4 5 6 6 6 4 5 5 4 4 4 4 3 3 4 3 4 5 7 13 13
4 5 4 4 3 3 3 4 4 3 4 5 5 5 6 6 6 6 6 6 8 9 10 9 9 9 10 9 9 9 9 10 9 9 8 5 7 7 7 6 6 7 7 5 6 4 5 6 6 5 5 5 6 5 6 6 6 6 6 6 6 4 7 6 5 7 5 4 5 6 5 3 4 3 3 3 4 4 3 3 3 3 4 5 8
4 4 4 3 3 4 3 3 4 5 6 5 5 4 4 5 6 7 7 8 7 8 8 8 9 9 8 9 8 10 10 9 9 10 8 8 7 7 7 7 6 7 8 6 6 6 6 5 7 6 5 5 5 5 6 6 7 7 6 6 4 4 6 4 4 5 5 4 3 4 4 4 3 4 4 3 3 4 4 4 3 3 3 4 4
5 6 5 4 4 4 5 5 4 4 5 5 4 5 4 4 5 6 8 7 8 7 6 6 7 7 8 9 10 8 7 8 7 9 9 9 9 8 7 8 8 7 7 7 7 6 6 6 6 6 5 5 5 5 5 6 6 7 5 5 3 4 6 6 4 5 3 4 5 5 4 5 4 5 5 5 4 4 4 3 3 3 3 2 6
6 5 5 4 4 4 5 5 6 6 4 4 5 5 5 5 5 5 5 5 5 7 7 8 7 7 7 6 6 7 8 9 9 10 9 9 9 9 9 9 8 7 6 7 7 7 7 7 5 6 6 5 6 4 5 6 6 6 5 5 4 5 7 6 4 4 4 5 5 6 5 5 4 4 4 4 3 3 3 3 2 2 2 3 4
5 5 5 4 4 4 3 2 2 1 2 4 5 5 5 3 5 5 7 7 7 6 7 7 7 7 9 9 9 8 8 8 8 7 9 9 8 8 8 8 7 6 7 7 8 8 7 7 6 5 6 6 6 5 4 5 6 6 5 5 4 6 6 4 4 5 5 5 5 4 4 4 3 4 4 3 3 3 3 2 2 1 2 4 3
5 4 4 4 4 3 1 1 1 2 3 4 4 4 5 4 4 5 6 6 7 6 6 7 6 8 8 9 9 7 8 8 9 8 9 8 8 8 8 8 8 6 7 8 8 7 6 6 7 6 5 6 5 6 4 5 7 7 6 4 5 5 5 4 4 5 4 4 3 4 4 4 3 3 3 4 3 4 4 3 3 3 3 4 3
4 4 4 3 3 3 4 4 4 4 5 4 4 5 5 4 4 4 5 4 4 6 5 6 7 7 8 7 8 9 8 9 10 9 9 9 8 7 7 10 8 7 5 7 8 7 6 6 7 6 6 6 5 6 4 6 6 6 6 5 4 5 6 5 5 4 4 3 4 4 4 4 3 4 3 3 3 3 3 3 4 3 3 4 4
2 2 2 2 2 2 3 4 4 3 4 4 4 4 4 4 4 3 4 4 4 4 5 6 7 7 7 8 8 8 9 8 10 8 10 8 8 8 7 8 8 7 8 6 6 7 6 6 7 6 6 6 6 5 5 5 6 6 5 5 5 5 5 5 4 4 4 4 4 4 4 4 4 4 4 4 3 3 3 3 3 3 3 4 4
3 4 4 2 3 4 5 5 5 4 4 4 5 4 5 4 4 4 4 3 4 4 4 5 7 8 6 8 8 7 9 9 9 8 9 8 8 8 7 8 9 8 7 8 5 5 6 6 8 7 6 6 5 5 6 6 5 5 5 5 4 4 4 4 4 4 4 4 4 4 4 4 4 5 5 6 5 6 5 4 5 5 4 4 4
4 4 4 7 7 5 5 5 5 5 6 5 4 4 4 4 4 4 5 4 4 4 4 7 7 8 7 7 7 7 8 9 9 9 9 9 8 8 8 6 8 10 7 6 7 5 6 7 6 6 6 6 5 5 6 6 5 4 4 4 4 4 4 4 4 3 3 3 3 3 3 3 4 4 5 5 5 6 5 5 5 6 5 5 5
5 6 6 3 4 9 9 7 6 5 5 6 6 5 4 4 5 4 4 6 6 6 5 6 7 7 8 7 8 7 8 8 8 8 8 7 7 7 8 8 7 9 9 8 6 7 4 7 6 6 6 6 6 6 6 5 4 4 4 4 5 4 4 4 3 3 3 3 3 3 3 3 3 3 4 5 5 5 5 6 6 6 5 6 7
4 5 7 9 8 6 7 7 6 7 6 5 5 6 7 7 8 6 5 5 6 6 6 6 7 7 7 8 7 7 8 8 7 7 7 7 7 7 7 7 7 8 8 8 8 8 6 6 6 6 5 5 6 6 5 4 4 4 5 5 4 4 4 3 3 3 3 3 3 2 2 3 3 3 3 4 5 6 5 5 5 5 6 8 8
6 8 7 8 9 9 8 8 8 6 7 7 6 6 4 4 4 6 6 7 7 7 7 7 7 8 7 7 7 6 6 7 8 8 8 8 7 7 7 7 7 6 6 7 7 8 9 8 6 6 6 5 6 5 4 4 5 4 4 4 3 3 3 4 3 3 3 3 3 3 3 3 4 6 8 8 8 9 6 6 5 6 7 8 8
8 9 9 9 10 8 9 8 8 10 9 8 7 7 7 7 7 6 7 6 7 8 8 8 8 7 7 7 7 7 7 8 9 9 8 8 8 8 8 8 7 7 7 7 7 6 7 9 8 6 6 6 5 4 6 9 7 4 4 3 3 4 3 3 3 3 3 3 3 3 3 5 7 7 8 10 11 12 11 8 8 7 8 8 8
8 8 10 8 8 8 8 9 10 10 10 9 8 8 7 7 8 8 8 7 7 8 7 8 8 7 7 7 7 7 8 9 8 8 8 9 9 8 8 8 7 7 8 7 8 8 7 7 7 7 7 5 4 4 9 10 10 9 4 3 4 4 3 3 3 3 3 3 3 3 3 4 4 5 4 9 12 12 12 12 13 13 11 10 9
10 10 7 8 10 10 12 13 12 10 9 9 10 9 9 10 8 8 7 7 7 7 8 7 7 7 7 8 8 8 9 8 8 9 9 8 8 8 8 8 8 8 7 6 8 7 7 7 7 7 6 5 4 7 10 9 9 10 7 4 4 4 4 4 3 3 2 2 3 3 3 3 3 5 6 5 7 11 12 13 14 14 14 15 14
8 8 9 11 12 14 13 10 7 10 11 11 9 8 11 9 8 7 6 8 8 8 7 7 7 8 9 8 9 10 9 9 9 9 8 8 8 8 8 8 8 7 7 8 7 8 7 6 7 8 6 4 4 9 10 10 10 10 10 6 4 3 5 4 3 2 2 2 3 4 3 4 3 7 6 5 6 7 10 12 14 14 13 14 15
7 9 11 12 10 9 9 9 9 9 10 9 10 11 8 6 7 7 9 8 9 7 8 8 8 8 9 9 9 9 10 9 8 8 8 9 8 9 7 6 7 6 8 8 6 8 7 7 7 7 7 5 4 8 10 9 10 10 10 6 3 4 4 4 3 2 2 2 3 3 4 4 4 5 6 7 8 8 8 8 7 7 8 10 13
10 9 9 10 9 8 6 8 11 9 7 8 7 7 7 8 9 9 8 9 8 8 8 8 9 9 9 9 9 9 9 9 9 9 8 8 8 7 7 7 7 8 9 9 9 8 7 6 7 6 7 6 4 9 9 9 9 10 10 7 4 4 3 3 2 2 2 2 2 3 3 3 4 5 6 9 9 9 9 8 8 8 8 7 7
11 11 10 8 10 12 12 11 5 7 8 9 10 8 9 8 7 8 8 8 8 9 9 8 9 10 10 10 10 10 9 9 10 9 9 9 8 8 9 7 6 6 5 6 5 6 8 7 6 6 7 6 4 9 9 9 9 10 10 5 4 4 3 3 2 2 2 2 2 3 3 4 4 5 9 14 14 12 10 11 11 9 8 6 5
7 4 7 7 7 7 7 5 7 9 10 10 8 9 8 8 9 8 9 9 8 9 9 10 10 10 10 10 10 11 11 10 10 10 10 9 9 8 6 6 8 7 8 7 7 6 6 7 7 5 7 6 4 6 8 8 9 11 7 4 3 3 3 2 3 3 2 2 2 3 3 4 5 5 10 16 17 17 9 11 12 12 9 8 7
4 4 4 4 5 5 5 8 8 9 9 8 9 11 10 10 10 9 10 9 10 10 9 10 10 10 10 10 10 10 11 10 10 11 11 8 6 5 6 6 9 9 8 7 7 7 5 5 6 6 6 7 5 5 8 8 9 10 8 4 3 3 3 3 4 4 3 3 3 6 6 4 5 6 13 16 17 13 8 9 11 12 14 12 11
6 5 5 5 6 6 6 6 7 9 9 9 10 11 11 10 9 10 10 11 12 11 11 12 11 10 10 9 9 9 9 11 11 10 10 11 9 9 6 5 6 6 8 7 7 8 7 4 4 5 7 7 5 4 7 8 9 9 7 4 3 2 4 4 3 3 4 3 2 4 7 7 7 9 16 16 17 13 8 8 9 11 12 13 11
4 4 4 3 3 5 4 7 10 10 8 10 11 11 10 10 10 10 11 12 14 15 12 9 8 9 9 9 8 10 9 10 11 9 8 8 7 8 7 7 6 6 8 7 6 7 8 6 5 5 5 4 5 3 3 8 8 8 8 4 2 3 5 4 3 3 3 2 2 2 4 8 10 13 15 15 15 15 9 7 7 8 10 12 11
4 4 1 3 4 6 9 9 6 7 9 9 10 11 11 10 10 11 15 15 9 6 7 8 7 8 8 8 7 8 10 7 6 8 8 7 7 8 8 8 9 7 7 7 7 6 7 6 5 4 4 3 3 4 3 7 7 7 7 6 2 4 3 3 2 2 2 2 2 2 3 7 12 14 14 14 13 13 12 7 7 6 9 14 15
1 2 1 3 4 3 3 3 4 7 8 9 9 10 8 8 9 13 10 4 6 7 7 7 8 8 7 7 7 6 6 7 7 9 9 8 5 6 7 8 7 8 9 8 7 6 7 6 4 3 3 4 3 5 2 5 6 6 5 6 4 3 3 3 2 1 2 2 3 4 4 8 13 13 12 12 12 11 12 6 8 14 17 17 12
4 3 3 2 4 3 3 3 3 6 6 8 9 9 8 8 11 8 4 6 6 7 8 8 8 8 8 8 7 8 8 7 8 8 10 10 8 8 7 7 9 8 9 9 8 7 7 6 4 3 2 2 3 2 5 3 5 4 5 6 6 4 5 3 1 1 2 2 3 5 6 11 12 12 11 11 10 11 8 8 14 14 15 16 12
2 2 3 2 4 3 4 3 3 4 5 6 10 9 8 9 8 4 6 6 7 7 8 8 8 8 8 8 8 8 8 7 9 9 9 10 9 8 7 7 7 8 8 8 6 6 7 6 5 4 3 2 1 2 2 4 3 4 4 5 4 5 5 2 1 1 1 3 4 4 6 12 11 11 11 10 10 9 9 13 14 15 15 13 7
3 3 3 3 4 5 5 4 2 3 3 4 4 7 6 7 4 6 7 8 8 8 8 8 8 8 8 7 7 7 7 7 7 9 10 9 9 9 9 6 7 6 7 8 8 9 9 7 5 5 4 3 2 2 1 1 3 3 3 3 4 4 4 4 1 1 3 3 6 9 10 9 9 10 11 10 8 10 13 13 14 14 12 6 7
2 3 4 4 5 5 5 5 3 2 3 4 3 4 7 5 5 6 7 8 9 9 9 9 8 8 8 8 8 6 6 6 7 6 7 8 11 11 9 9 7 6 7 8 8 8 6 8 5 4 4 4 3 2 2 1 2 2 2 2 4 3 2 3 3 3 6 6 7 7 8 7 8 8 6 4 4 6 12 13 14 12 6 6 6
3 1 2 4 4 5 4 4 4 1 2 3 4 2 3 6 6 6 6 7 8 9 8 7 8 8 7 8 10 9 8 7 7 6 5 6 6 7 8 9 8 8 8 7 7 8 8 8 8 7 4 4 4 4 3 2 2 3 1 1 1 1 2 2 2 3 2 2 3 4 3 6 6 10 9 8 7 8 6 6 5 5 5 6 6
1 1 2 3 4 4 4 4 3 1 2 3 3 3 5 6 6 7 7 8 9 9 10 9 9 8 8 8 8 9 9 8 7 7 8 7 6 6 9 10 11 11 10 9 8 9 9 9 8 9 7 6 6 4 4 4 3 3 2 2 1 2 2 0 1 2 2 2 3 5 5 3 2 3 4 3 3 3 5 5 5 5 5 6 8
2 1 1 3 4 4 4 4 3 0 2 3 3 3 4 7 7 7 8 9 8 7 7 8 8 7 8 7 7 8 8 8 8 6 4 3 7 8 7 5 0 2 5 10 11 10 8 7 8 10 12 9 5 5 6 6 5 5 5 3 2 3 2 1 2 1 4 3 3 4 2 4 4 4 4 3 3 3 4 5 5 5 5 6 6
1 2 3 3 3 3 3 3 1 1 2 3 3 3 2 3 5 6 8 9 8 8 7 8 7 7 7 7 6 6 6 6 7 7 6 3 3 3 2 4 4 3 2 2 5 6 7 8 8 5 6 6 8 6 9 11 8 6 5 4 4 4 3 2 0 4 6 4 4 3 3 3 3 4 4 4 4 4 4 6 5 7 6 6 7
1 3 2 3 2 2 3 3 1 1 2 2 2 2 3 2 4 5 6 7 8 7 6 6 6 7 8 8 7 7 6 6 5 6 6 6 6 3 4 5 5 5 6 7 7 6 11 10 8 8 5 5 8 11 12 10 9 7 6 5 5 4 4 3 2 5 4 4 3 2 2 2 2 3 3 4 3 4 4 5 6 6 5 6 7
Wind_Direction
233 222 220 220 217 211 208 197 202 200 204 200 202 205 201 199 188 205 200 189 183 184 183 181 184 189 199 198 196 187 190 188 194 198 202 201 192 188 195 190 188 191 195 194 201 218 231 237 232 244 170 187 216 238 263 342 79 218 248 194 245 282 308 287 282 218 287 295 258 262 288 276 268 279 342 343 331 309 343 324 313 330 320 320 311
280 251 222 218 217 210 203 202 193 201 213 199 205 207 204 199 198 200 187 193 195 190 184 187 190 189 181 188 179 177 180 182 193 197 202 198 192 191 186 183 155 164 181 234 270 251 239 237 233 246 202 211 222 249 276 260 213 207 213 280 196 234 273 306 301 334 359 357 331 328 286 304 300 355 24 347 337 320 333 322 315 319 312 309 313
234 239 231 219 219 214 202 205 206 209 207 204 211 207 206 204 205 195 193 192 197 191 185 193 188 185 179 175 176 188 228 181 179 187 188 195 195 182 181 182 177 189 201 203 211 219 221 210 229 233 212 201 242 270 259 268 228 225 206 215 283 187 226 319 327 164 323 325 291 339 341 349 335 2 335 325 318 316 354 329 317 323 310 309 314
236 231 228 218 213 212 204 205 207 204 207 210 210 210 209 210 205 196 196 194 193 194 192 191 182 177 165 154 173 146 178 175 153 131 145 153 220 229 179 192 212 216 206 204 208 208 211 222 251 223 202 191 207 244 249 269 243 171 130 226 174 329 354 311 34 36 105 13 352 343 304 320 311 335 350 329 18 319 347 327 331 316 312 317 326
237 240 237 221 216 216 207 207 196 200 207 208 206 208 208 210 206 197 195 195 195 188 188 167 138 123 105 70 96 93 65 105 124 149 153 161 171 169 234 223 233 217 213 217 193 204 190 194 206 212 196 187 178 189 185 150 113 98 113 94 139 176 340 344 356 26 32 43 341 355 337 351 290 323 343 291 352 347 329 328 339 337 339 331 330
227 233 229 219 216 219 217 209 201 207 210 208 205 208 206 210 202 197 195 194 194 189 178 163 169 163 156 158 161 171 181 165 181 174 160 175 196 184 227 204 216 215 196 208 197 168 149 143 133 115 96 100 125 145 124 105 90 80 63 103 88 176 152 76 8 345 62 83 87 126 184 293 320 324 342 305 350 285 283 323 330 330 333 341 332
235 248 245 221 224 219 220 211 208 208 212 200 200 205 207 205 198 195 194 194 189 179 171 169 172 177 181 186 185 183 184 202 171 167 174 179 149 188 206 227 210 157 97 136 113 112 106 103 110 105 99 101 92 96 98 99 98 95 83 84 93 89 116 108 91 335 12 54 54 63 56 340 7 359 325 303 315 312 308 325 309 310 341 338 328
219 227 227 223 216 208 211 210 206 210 204 189 197 200 199 201 194 195 195 191 184 172 173 179 180 182 185 190 187 187 190 187 181 178 160 137 157 178 127 78 57 101 120 113 123 115 118 105 100 95 92 78 100 105 115 117 98 69 63 74 79 94 121 114 111 67 81 305 39 48 19 29 25 77 275 19 293 301 296 281 272 325 328 295 289
211 220 223 216 215 214 218 216 216 211 197 192 198 196 194 196 193 189 193 188 185 176 177 185 185 182 185 183 186 197 186 170 136 118 141 147 144 138 124 109 85 67 75 93 75 104 115 120 100 93 93 96 110 116 104 99 96 95 81 70 86 60 54 90 93 57 65 47 9 32 24 33 332 322 97 32 295 296 284 291 311 287 256 279 284
223 225 228 225 224 226 226 242 212 212 204 197 194 182 188 184 188 187 197 191 184 181 182 186 186 179 184 185 186 179 153 126 152 155 154 164 148 150 136 129 130 112 92 100 111 88 95 105 104 101 113 105 94 106 116 95 89 86 85 90 83 76 50 67 80 77 74 73 69 50 32 342 18 13 28 4 304 248 290 314 322 332 329 297 296
229 230 233 232 234 229 212 210 217 203 191 181 189 189 186 187 187 192 197 188 182 183 182 187 186 185 188 186 186 174 169 156 152 154 148 152 151 147 148 139 133 125 115 105 79 114 111 79 87 92 98 108 106 108 90 105 103 99 89 75 64 74 72 81 74 67 69 62 48 55 53 48 48 348 340 359 360 327 322 304 317 320 304 311 257
224 221 231 224 223 220 191 213 203 198 176 193 196 192 191 192 186 192 193 188 184 184 185 186 184 188 189 184 185 178 169 170 169 165 165 164 163 149 143 129 115 110 162 91 62 45 91 92 88 95 84 89 89 97 91 100 93 78 69 74 77 77 76 78 75 72 64 66 58 51 55 49 43 44 22 17 348 335 318 293 306 318 297 212 288
220 224 226 210 203 194 195 202 183 183 190 190 194 189 191 192 191 190 197 187 186 180 184 182 183 187 186 185 186 174 176 175 172 166 169 162 160 149 156 158 149 127 99 108 101 85 105 101 98 98 93 82 99 91 85 87 91 88 86 76 71 65 61 72 76 65 62 69 68 39 46 42 49 29 26 18 348 302 297 312 294 290 291 303 286
231 219 215 212 200 199 194 186 186 177 176 177 164 160 180 189 193 195 198 184 181 180 182 181 188 187 186 184 181 171 179 178 174 167 170 168 159 165 173 162 166 161 149 140 148 119 82 98 107 94 91 94 90 90 91 90 91 91 87 81 71 65 68 67 70 67 58 53 41 43 35 32 38 31 33 27 10 350 334 328 319 307 264 275 306
234 229 217 209 202 191 185 180 173 163 160 167 179 179 166 182 185 193 185 181 185 186 181 185 187 187 187 186 179 177 177 177 176 172 163 161 172 160 163 159 150 146 140 129 122 103 105 101 96 97 93 92 93 92 89 87 89 87 79 83 74 65 68 72 65 63 59 48 49 50 52 46 38 33 31 31 21 8 340 332 339 331 324 280 279
221 224 226 229 208 181 162 156 157 165 169 169 178 180 186 192 186 192 191 179 189 186 188 186 188 185 185 183 182 176 173 167 157 160 164 164 161 158 152 148 138 131 115 115 107 117 119 107 93 91 93 89 86 93 96 95 94 93 85 83 77 55 76 66 63 65 62 50 52 44 56 50 37 30 34 28 24 10 346 345 343 342 330 321 325
226 225 225 219 210 203 181 164 164 171 175 185 185 185 188 182 184 187 185 183 194 192 188 187 183 180 188 183 171 166 162 164 163 157 147 130 130 132 135 133 136 124 119 117 122 107 108 109 103 95 88 92 95 97 100 100 97 93 91 87 85 70 77 75 66 65 55 49 46 42 51 46 26 16 36 44 25 19 5 356 346 341 327 305 322
227 224 228 221 207 193 193 194 184 183 180 178 182 187 202 197 191 186 181 188 196 192 189 183 178 181 176 173 170 167 165 163 156 146 139 133 125 120 124 131 130 123 121 131 121 115 105 103 105 100 100 100 107 103 102 104 101 88 90 85 107 112 93 79 62 72 54 52 52 47 40 40 13 20 20 17 32 13 4 352 348 334 326 302 294
231 225 219 218 207 197 190 191 190 188 180 170 168 174 204 203 196 191 191 193 186 184 179 177 175 170 169 167 161 154 147 140 137 137 139 138 140 141 136 127 116 119 125 128 122 116 113 107 112 115 115 111 105 106 107 98 98 98 90 94 91 93 79 70 49 59 49 52 39 35 26 28 16 11 5 4 6 16 353 357 332 329 311 292 293
218 216 215 213 215 205 194 185 180 182 170 167 168 174 198 195 184 188 178 170 169 171 167 165 162 150 142 135 137 142 142 141 144 144 139 138 144 138 131 125 132 129 128 127 128 128 127 125 127 127 118 112 105 99 102 104 92 90 97 82 66 75 70 65 56 58 53 47 39 31 20 18 3 11 5 357 349 340 348 336 323 305 301 288 289
224 210 202 206 214 218 219 214 207 194 167 166 168 181 182 183 183 177 169 167 171 167 159 153 143 143 143 145 139 134 131 130 130 132 127 130 131 128 124 128 121 132 135 135 132 132 132 132 132 124 119 117 109 102 95 101 93 92 78 87 76 74 79 63 62 45 41 43 40 34 17 6 12 10 350 342 345 340 341 337 311 306 282 283 285
220 211 202 203 208 208 180 82 85 136 174 184 181 179 178 185 180 170 165 170 164 161 155 142 141 144 144 137 133 129 133 133 129 126 123 126 128 126 130 128 132 142 145 137 129 129 130 132 121 117 110 105 101 98 101 98 98 93 80 70 75 78 76 67 58 47 35 40 43 32 11 6 10 7 339 346 337 339 347 349 335 331 300 296 274
214 209 213 211 195 190 184 182 180 183 185 187 183 183 183 175 172 178 168 165 158 149 141 139 137 136 130 128 130 133 132 131 126 127 126 128 127 128 136 133 137 141 132 126 130 130 132 125 116 115 111 102 98 96 88 91 90 93 92 77 76 76 72 64 55 46 35 23 35 29 11 2 358 1 355 337 333 337 334 335 324 311 304 288 281
221 203 199 202 192 176 168 189 190 193 190 191 192 181 177 176 175 161 158 139 117 122 131 125 122 119 126 128 130 133 131 132 128 132 130 133 133 135 135 132 137 135 123 111 120 131 129 127 119 113 106 107 101 98 89 84 91 96 92 88 80 77 77 76 70 50 34 32 26 17 5 359 356 1 351 348 342 337 335 332 315 309 292 292 279
200 199 201 184 179 189 203 198 197 194 194 193 192 194 176 178 157 159 135 130 124 119 124 122 127 127 131 132 135 139 134 132 130 133 135 137 138 135 138 140 134 121 121 122 121 130 126 123 119 119 114 107 113 112 102 92 83 84 93 93 88 83 76 70 63 52 41 36 22 19 350 355 357 358 347 347 340 339 336 330 323 312 307 291 283
207 201 185 202 206 203 203 206 201 199 194 189 191 187 181 166 170 152 144 136 137 127 136 135 136 135 137 136 138 137 137 138 138 139 142 142 138 139 138 131 129 125 123 128 132 132 126 118 114 115 113 114 113 107 100 99 99 100 98 96 92 83 78 71 63 54 45 40 32 6 354 358 358 357 336 326 328 326 325 323 317 313 303 297 293
204 205 211 207 208 212 211 205 203 192 189 189 183 179 176 169 167 159 160 159 158 151 149 146 145 143 143 147 149 148 141 140 142 139 135 134 136 140 136 131 129 129 133 133 130 118 116 116 117 114 114 116 109 99 98 102 107 103 101 91 79 75 72 71 71 62 53 44 34 17 356 356 352 338 322 317 315 314 314 310 305 305 302 302 301
205 206 206 212 217 218 214 211 203 201 189 188 187 182 178 178 176 174 165 164 163 155 156 153 150 150 153 152 152 145 140 139 135 132 134 135 136 134 126 123 127 131 135 136 134 125 120 110 112 107 110 107 100 94 96 101 99 95 88 80 80 79 77 75 71 59 50 36 20 10 1 344 336 312 307 304 311 308 308 308 303 301 303 304 303
214 220 216 215 216 213 209 206 206 193 194 190 183 185 182 179 172 169 166 174 166 157 159 159 158 159 160 153 144 139 133 133 134 135 138 142 138 129 125 126 127 127 125 126 127 126 122 111 103 107 104 93 91 95 104 103 96 88 91 93 94 88 79 70 62 56 45 36 15 5 354 332 316 314 317 319 320 325 326 320 313 310 312 310 309
230 225 220 218 220 216 213 207 202 198 194 188 185 184 182 178 178 177 177 173 162 168 161 163 164 162 153 151 144 141 141 139 141 146 148 143 136 133 131 130 131 129 127 128 122 118 118 122 118 108 97 93 94 95 102 105 106 111 102 103 96 82 76 71 62 47 30 24 7 0 337 321 326 325 323 326 331 330 327 322 318 321 317 314 310
236 233 227 224 221 220 214 211 211 202 196 186 187 185 183 186 184 179 178 170 164 161 164 162 166 157 150 145 144 146 144 149 150 145 145 141 137 136 134 132 133 133 132 130 124 120 118 118 118 117 108 102 97 95 96 96 99 106 108 103 96 87 82 74 64 48 22 358 351 345 335 329 329 329 326 328 331 327 324 321 318 315 313 313 314
231 230 224 222 221 218 216 215 209 202 193 190 187 186 183 194 181 179 172 159 164 164 165 170 157 148 150 152 152 149 152 153 151 152 148 142 137 136 139 140 137 132 131 125 118 120 120 120 113 108 107 107 101 102 102 101 103 105 104 98 93 91 79 73 62 45 19 355 340 342 338 344 340 333 328 320 315 314 316 317 316 317 317 314 310
232 226 222 223 220 219 218 217 205 200 197 199 184 177 196 189 175 172 144 163 172 170 165 160 155 157 159 158 156 159 157 157 159 151 145 140 142 142 144 146 144 140 131 124 128 123 122 119 118 118 113 111 104 107 106 106 107 102 92 91 89 85 78 66 51 38 11 352 347 344 346 342 333 326 320 312 304 298 298 309 317 318 315 312 310
236 226 222 226 224 224 219 214 210 205 200 185 182 188 182 157 155 152 165 173 169 171 167 163 159 166 165 163 162 162 161 158 149 144 145 147 151 156 149 138 133 133 127 125 124 122 123 122 124 122 119 117 107 110 110 109 109 101 93 91 89 79 73 68 65 33 13 355 345 347 339 334 326 322 316 310 303 303 310 312 312 311 306 304 304
234 234 230 223 219 219 214 211 212 198 177 168 187 178 157 157 162 166 172 168 174 164 169 168 169 169 166 165 165 164 157 152 150 150 151 155 154 144 144 148 147 144 143 141 140 131 127 125 125 124 119 114 109 111 111 111 111 103 93 93 83 83 76 75 55 54 14 348 332 335 328 313 317 314 307 316 319 320 318 316 312 306 299 294 291
232 224 227 212 209 210 209 214 173 161 181 184 184 166 163 167 157 163 164 174 173 176 176 168 172 173 173 171 166 161 157 156 156 155 156 156 155 158 152 149 129 116 110 114 106 115 129 130 130 129 119 111 109 113 113 113 110 104 99 94 96 88 88 89 58 68 30 351 335 327 324 314 307 305 300 320 331 330 325 319 314 307 294 287 280
251 211 233 216 212 209 207 172 170 180 176 187 169 162 158 151 163 170 170 174 175 182 182 179 180 177 175 171 169 165 164 163 160 157 160 160 157 150 146 146 132 135 134 132 134 128 132 132 134 134 123 116 110 113 115 113 111 109 101 99 100 97 97 101 67 49 38 6 343 328 315 304 301 291 306 329 332 335 325 319 313 311 310 307 292
255 257 252 223 206 193 180 175 175 182 183 165 161 162 160 164 172 169 169 176 181 191 185 185 185 179 175 172 174 169 164 162 163 166 163 157 147 138 150 162 147 146 139 138 131 121 122 131 134 134 135 125 120 115 117 113 111 110 106 102 99 111 93 79 64 39 45 10 337 324 315 298 300 298 324 331 333 336 327 319 314 317 319 319 318
238 230 231 214 208 186 176 164 165 182 183 164 160 161 164 173 170 173 176 181 192 191 187 188 183 175 176 172 167 163 165 166 168 166 160 156 159 156 148 137 132 127 130 132 130 124 123 119 121 122 125 120 118 108 111 112 108 107 105 103 101 123 95 66 47 30 4 1 333 300 323 329 321 321 330 333 335 336 325 319 321 318 316 319 320
263 254 239 227 156 113 135 170 189 194 159 160 159 164 171 174 178 172 184 195 198 196 187 173 167 167 165 163 165 166 168 170 167 154 151 149 137 135 147 138 129 131 134 134 130 130 127 125 121 114 114 119 120 107 103 110 103 96 101 108 128 91 69 55 28 12 357 342 310 282 296 322 329 329 334 335 335 333 328 322 319 313 312 315 329
304 286 211 147 174 174 182 193 188 152 156 159 161 164 180 181 175 180 201 205 191 158 155 165 156 155 159 162 160 167 164 161 153 149 139 136 147 147 141 139 136 133 130 132 134 132 124 121 119 119 120 118 116 103 90 106 100 96 93 105 112 75 76 67 40 5 354 328 305 293 269 320 327 334 336 333 330 330 331 328 306 304 318 321 327
302 305 147 137 149 144 119 111 133 150 153 159 162 174 176 176 180 205 207 134 140 152 145 145 151 152 151 152 154 145 144 143 135 137 141 141 136 138 143 141 140 141 140 138 139 137 130 123 118 110 115 103 100 110 82 86 99 95 95 87 99 77 68 84 27 16 334 321 322 319 299 319 332 336 333 330 333 337 341 332 326 329 327 329 333
355 15 17 108 133 128 124 127 133 146 154 160 164 173 179 179 202 202 142 140 139 141 143 143 144 148 153 152 149 148 147 147 150 155 151 148 149 145 145 143 141 141 142 144 150 146 141 134 123 121 125 111 101 59 113 91 96 107 92 76 72 72 44 60 54 355 342 318 303 306 307 326 335 334 333 338 343 352 351 340 340 338 338 334 329
11 38 23 70 88 82 84 71 105 136 155 163 169 176 180 190 203 140 131 128 135 136 139 143 149 152 149 152 153 152 150 154 158 156 154 149 151 148 143 150 149 147 149 149 155 153 123 133 146 150 147 138 114 128 78 116 124 104 85 79 70 56 44 51 24 13 322 303 297 307 324 332 333 336 341 348 353 357 352 348 346 344 342 335 320
26 12 21 66 105 110 95 74 68 118 141 161 177 173 176 192 172 134 141 141 138 141 145 152 154 154 154 150 146 152 156 158 162 159 154 155 149 152 148 157 151 153 155 157 157 157 163 162 151 155 155 151 144 127 158 185 150 105 85 83 66 51 39 12 20 253 265 268 305 326 336 336 341 346 356 357 3 356 352 352 351 351 345 321 330
52 45 41 88 93 95 104 105 74 94 138 151 169 162 180 184 141 148 145 146 145 147 154 157 154 154 153 147 147 148 154 161 164 174 172 166 161 163 159 158 161 159 158 159 163 171 164 163 165 149 155 154 148 157 189 223 188 139 123 81 64 49 19 348 343 321 301 311 326 342 340 349 358 357 5 357 6 352 352 354 355 351 330 333 335
87 27 61 84 99 96 104 118 119 48 122 142 151 131 141 132 149 139 140 140 147 151 152 151 157 154 151 159 161 164 165 166 171 166 161 162 164 161 156 159 166 162 163 162 164 168 166 165 170 160 143 147 158 177 191 210 220 184 177 120 92 41 346 359 11 279 303 43 10 355 351 15 12 6 7 7 4 354 345 345 341 337 332 334 341
38 30 87 86 99 125 135 137 146 155 117 123 120 111 129 134 138 144 142 145 152 163 162 166 162 160 165 171 171 167 166 168 176 172 166 166 175 175 170 175 175 174 166 174 174 177 179 179 174 147 151 143 180 197 201 197 206 178 169 147 145 208 193 144 263 258 100 48 49 5 18 23 7 6 351 345 336 340 337 343 342 333 331 339 348
78 26 74 122 129 127 149 144 149 130 101 102 105 120 140 142 147 148 149 152 158 157 153 155 160 157 170 175 174 172 175 172 171 177 181 173 177 179 180 169 136 161 191 175 176 186 189 181 163 167 150 150 185 200 204 187 192 177 158 155 184 195 173 165 273 23 88 53 54 34 24 21 17 11 345 336 329 342 344 345 339 338 342 346 350
64 67 79 77 91 130 133 122 123 61 96 106 104 109 126 138 145 154 155 157 157 155 157 167 169 173 169 169 172 171 173 170 172 174 161 112 55 110 72 157 169 173 183 237 202 195 185 162 155 166 169 170 190 181 178 180 175 161 160 162 180 161 134 125 77 89 105 82 40 44 22 22 5 356 335 336 339 341 340 351 348 351 353 351 352
100 86 59 73 68 94 105 106 94 50 78 91 107 111 119 137 152 161 165 159 153 157 166 165 168 184 180 179 174 173 177 168 172 169 167 158 121 127 143 144 153 160 165 166 160 150 148 157 153 151 183 156 144 157 169 167 168 163 161 167 159 139 109 101 110 102 56 87 76 38 10 2 355 335 320 322 328 342 347 350 344 344 347 351 348